Terminal Aerodrome Forecast
Issued by NWS Spokane, WA

Home | Current Version | Previous Version | Text Only | Print | Product List | Glossary On
Versions: 1 2 3 4 5 6 7 8 9 10 11 12 13 14 15 16 17 18 19 20 21 22 23 24 25 26 27 28 29 30 31 32 33 34 35 36 37 38 39 40 41 42
000
FTUS46 KOTX 231734
TAFEAT
TAF
KEAT 231734Z 2318/2418 VRB03KT P6SM VCSH SCT070 BKN200
     FM232000 30014G20KT P6SM FEW100 SCT200
     FM240100 31010G24KT P6SM FEW200
     FM241100 32004KT P6SM BKN200=

USA.gov is the U.S. government's official web portal to all federal, state and local government web resources and services.